Chipley, FL

10:37 AM CDT on September 24, 2017 (GMT -0500)
Chipley

Weather History for KVSH - August, 2014

Change the Weather History Date:

Sunday, August 24, 2014

  Actual Average (KDHN) Record (KDHN)
Temperature  
Mean Temperature 90 °F -  
Max Temperature 96 °F 89 °F 101 °F (1938)
Min Temperature 84 °F 69 °F 60 °F (1957)
Cooling Degree Days 25    
Growing Degree Days 40 (Base 50)    
Moisture  
Dew Point 71 °F    
Average Humidity 54    
Maximum Humidity 70    
Minimum Humidity 41    
Precipitation  
Precipitation 0.00 in - - ()
Sea Level Pressure  
Sea Level Pressure 29.92 in    
Wind  
Wind Speed 3 mph (North)    
Max Wind Speed 9 mph    
Max Gust Speed 16 mph    
Visibility 10 miles    
Events      
Averages and records for this station are not official NWS values.
T = Trace of Precipitation, MM = Missing Value Source: NWS Daily Summary

Daily Weather History Graph

Daily Weather History Graph

Search for Another Location

Airport or City:

Trip Planner

Search our weather history database for the weather conditions in past years. The results will help you decide how hot, cold, wet, or windy it might be!

Date:

Astronomy

Aug. 24, 2014 Rise Set
Actual Time 6:14 AM CDT 7:14 PM CDT
Civil Twilight 5:49 AM CDT 7:39 PM CDT
Nautical Twilight 5:19 AM CDT 8:09 PM CDT
Astronomical Twilight 4:49 AM CDT 8:39 PM CDT
Moon 5:23 AM CDT 6:34 PM CDT
Length of Visible Light 13h 50m
Length of Day
13h 00m
Waning Crescent, 1% of the Moon is Illuminated
Aug 24
Waning Crescent
Aug 25
New
Sep 2
First Quarter
Sep 8
Full
Sep 15
Last Quarter

Hourly Weather History & Observations

Time (CDT) Temp. Heat Index Dew Point Humidity Pressure Visibility Wind Dir Wind Speed Gust Speed Precip Events Conditions
12:15 AM 89.6 °F 96.2 °F 71.6 °F 55% 29.95 in 10.0 mi Calm Calm - N/A   Clear
12:35 AM 87.8 °F 95.6 °F 73.4 °F 62% 29.95 in 10.0 mi SSW 4.6 mph - N/A   Clear
12:55 AM 87.8 °F 95.6 °F 73.4 °F 62% 29.94 in 10.0 mi SSW 3.5 mph - N/A   Clear
1:15 AM 87.8 °F 95.6 °F 73.4 °F 62% 29.94 in 10.0 mi Calm Calm - N/A   Clear
1:35 AM 87.8 °F 95.6 °F 73.4 °F 62% 29.93 in 10.0 mi Calm Calm - N/A   Clear
1:55 AM 86.0 °F 91.8 °F 71.6 °F 62% 29.93 in 10.0 mi Calm Calm - N/A   Clear
2:15 AM 87.8 °F 93.8 °F 71.6 °F 58% 29.93 in 10.0 mi Calm Calm - N/A   Clear
2:35 AM 86.0 °F 91.8 °F 71.6 °F 62% 29.92 in 10.0 mi Calm Calm - N/A   Clear
2:55 AM 87.8 °F 93.8 °F 71.6 °F 58% 29.91 in 10.0 mi Calm Calm - N/A   Clear
3:15 AM 86.0 °F 91.8 °F 71.6 °F 62% 29.91 in 10.0 mi Calm Calm - N/A   Clear
3:35 AM 86.0 °F 93.4 °F 73.4 °F 66% 29.91 in 10.0 mi Calm Calm - N/A   Clear
3:55 AM 84.2 °F 90.9 °F 73.4 °F 70% 29.91 in 10.0 mi Calm Calm - N/A   Clear
4:15 AM 84.2 °F 90.9 °F 73.4 °F 70% 29.91 in 10.0 mi West 3.5 mph - N/A   Clear
4:35 AM 86.0 °F 93.4 °F 73.4 °F 66% 29.91 in 10.0 mi Calm Calm - N/A   Clear
4:55 AM 86.0 °F 93.4 °F 73.4 °F 66% 29.92 in 10.0 mi Calm Calm - N/A   Clear
5:15 AM 86.0 °F 93.4 °F 73.4 °F 66% 29.92 in 10.0 mi Calm Calm - N/A   Clear
5:35 AM 84.2 °F 90.9 °F 73.4 °F 70% 29.92 in 10.0 mi Calm Calm - N/A   Clear
5:55 AM 84.2 °F 90.9 °F 73.4 °F 70% 29.93 in 10.0 mi Calm Calm - N/A   Clear
6:15 AM 84.2 °F 90.9 °F 73.4 °F 70% 29.93 in 10.0 mi Calm Calm - N/A   Clear
6:35 AM 84.2 °F 90.9 °F 73.4 °F 70% 29.93 in 10.0 mi Calm Calm - N/A   Clear
6:55 AM 84.2 °F 90.9 °F 73.4 °F 70% 29.94 in 10.0 mi NNW 3.5 mph - N/A   Clear
7:15 AM 84.2 °F 90.9 °F 73.4 °F 70% 29.94 in 10.0 mi North 3.5 mph - N/A   Clear
7:35 AM 84.2 °F 90.9 °F 73.4 °F 70% 29.95 in 10.0 mi North 4.6 mph - N/A   Clear
7:55 AM 86.0 °F 93.4 °F 73.4 °F 66% 29.96 in 10.0 mi North 5.8 mph - N/A   Clear
8:15 AM 87.8 °F 95.6 °F 73.4 °F 62% 29.95 in 10.0 mi North 6.9 mph - N/A   Clear
8:35 AM 87.8 °F 93.8 °F 71.6 °F 58% 29.96 in 10.0 mi NNE 5.8 mph - N/A   Clear
8:55 AM 89.6 °F 94.7 °F 69.8 °F 52% 29.96 in 10.0 mi NNE 8.1 mph - N/A   Clear
9:15 AM 89.6 °F 94.7 °F 69.8 °F 52% 29.96 in 10.0 mi North 6.9 mph - N/A   Clear
9:35 AM 89.6 °F 94.7 °F 69.8 °F 52% 29.96 in 10.0 mi North 5.8 mph - N/A   Clear
9:55 AM 89.6 °F 94.7 °F 69.8 °F 52% 29.96 in 10.0 mi NNE 6.9 mph - N/A   Clear
10:15 AM 91.4 °F 96.8 °F 69.8 °F 49% 29.96 in 10.0 mi NNE 6.9 mph - N/A   Partly Cloudy
10:35 AM 91.4 °F 98.4 °F 71.6 °F 52% 29.97 in 10.0 mi North 5.8 mph - N/A   Clear
10:55 AM 91.4 °F 98.4 °F 71.6 °F 52% 29.97 in 10.0 mi North 6.9 mph - N/A   Mostly Cloudy
11:15 AM 89.6 °F 94.7 °F 69.8 °F 52% 29.97 in 10.0 mi North 6.9 mph - N/A   Overcast
11:35 AM 91.4 °F 98.4 °F 71.6 °F 52% 29.96 in 10.0 mi NW 3.5 mph - N/A   Partly Cloudy
11:55 AM 91.4 °F 98.4 °F 71.6 °F 52% 29.95 in 10.0 mi NNW 5.8 mph - N/A   Clear
12:15 PM 93.2 °F 100.5 °F 71.6 °F 49% 29.94 in 10.0 mi North 4.6 mph - N/A   Clear
12:35 PM 93.2 °F 100.5 °F 71.6 °F 49% 29.94 in 10.0 mi North 8.1 mph - N/A   Clear
12:55 PM 95.0 °F 101.3 °F 69.8 °F 44% 29.94 in 10.0 mi NNW 6.9 mph - N/A   Clear
1:15 PM 95.0 °F 101.3 °F 69.8 °F 44% 29.93 in 10.0 mi NNE 9.2 mph - N/A   Clear
1:35 PM 93.2 °F 97.7 °F 68.0 °F 44% 29.92 in 10.0 mi NNE 9.2 mph - N/A   Clear
1:55 PM 95.0 °F 99.5 °F 68.0 °F 41% 29.91 in 10.0 mi North 6.9 mph - N/A   Clear
2:15 PM 95.0 °F 99.5 °F 68.0 °F 41% 29.91 in 10.0 mi NNW 8.1 mph 16.1 mph N/A   Clear
2:35 PM 93.2 °F 98.8 °F 69.8 °F 46% 29.90 in 10.0 mi NNW 9.2 mph - N/A   Clear
2:55 PM 95.0 °F 101.3 °F 69.8 °F 44% 29.90 in 10.0 mi North 4.6 mph - N/A   Clear
3:15 PM 95.0 °F 101.3 °F 69.8 °F 44% 29.89 in 10.0 mi NNW 8.1 mph - N/A   Clear
3:35 PM 96.8 °F 103.1 °F 69.8 °F 41% 29.89 in 10.0 mi WNW 8.1 mph - N/A   Clear
3:55 PM 96.8 °F 103.1 °F 69.8 °F 41% 29.88 in 10.0 mi North 8.1 mph - N/A   Clear
4:15 PM 96.8 °F 103.1 °F 69.8 °F 41% 29.88 in 10.0 mi North 8.1 mph 16.1 mph N/A   Clear
4:35 PM 96.8 °F 103.1 °F 69.8 °F 41% 29.87 in 10.0 mi NNW 9.2 mph - N/A   Clear
4:55 PM 95.0 °F 101.3 °F 69.8 °F 44% 29.87 in 10.0 mi North 8.1 mph - N/A   Clear
5:15 PM 95.0 °F 101.3 °F 69.8 °F 44% 29.87 in 10.0 mi NW 5.8 mph - N/A   Clear
5:35 PM 95.0 °F 99.5 °F 68.0 °F 41% 29.87 in 10.0 mi NW 5.8 mph - N/A   Clear
5:55 PM 93.2 °F 98.8 °F 69.8 °F 46% 29.86 in 10.0 mi North 5.8 mph - N/A   Clear
6:15 PM 93.2 °F 98.8 °F 69.8 °F 46% 29.86 in 10.0 mi North 6.9 mph - N/A   Clear
6:35 PM 93.2 °F 98.8 °F 69.8 °F 46% 29.86 in 10.0 mi North 8.1 mph - N/A   Clear
6:55 PM 93.2 °F 98.8 °F 69.8 °F 46% 29.85 in 10.0 mi NW 3.5 mph - N/A   Clear
7:15 PM 93.2 °F 98.8 °F 69.8 °F 46% 29.86 in 10.0 mi NW 8.1 mph - N/A   Clear
7:35 PM 91.4 °F 98.4 °F 71.6 °F 52% 29.87 in 10.0 mi North 3.5 mph - N/A   Clear
7:55 PM 93.2 °F 100.5 °F 71.6 °F 49% 29.88 in 10.0 mi NNW 3.5 mph - N/A   Clear
8:15 PM 91.4 °F 98.4 °F 71.6 °F 52% 29.88 in 10.0 mi NNW 6.9 mph - N/A   Clear
8:35 PM 91.4 °F 98.4 °F 71.6 °F 52% 29.88 in 10.0 mi North 3.5 mph - N/A   Clear
8:55 PM 91.4 °F 98.4 °F 71.6 °F 52% 29.89 in 10.0 mi Calm Calm - N/A   Clear
9:15 PM 91.4 °F 98.4 °F 71.6 °F 52% 29.89 in 10.0 mi North 5.8 mph - N/A   Clear
9:35 PM 91.4 °F 98.4 °F 71.6 °F 52% 29.89 in 10.0 mi North 4.6 mph - N/A   Clear
9:55 PM 91.4 °F 98.4 °F 71.6 °F 52% 29.89 in 10.0 mi North 5.8 mph - N/A   Clear
10:15 PM 89.6 °F 96.2 °F 71.6 °F 55% 29.90 in 10.0 mi North 5.8 mph - N/A   Clear
10:35 PM 89.6 °F 96.2 °F 71.6 °F 55% 29.90 in 10.0 mi North 6.9 mph - N/A   Clear
10:55 PM 89.6 °F 96.2 °F 71.6 °F 55% 29.90 in 10.0 mi North 4.6 mph - N/A   Clear
11:15 PM 89.6 °F 96.2 °F 71.6 °F 55% 29.90 in 10.0 mi North 9.2 mph - N/A   Clear
11:35 PM 89.6 °F 96.2 °F 71.6 °F 55% 29.90 in 10.0 mi North 6.9 mph - N/A   Clear
11:55 PM 89.6 °F 96.2 °F 71.6 °F 55% 29.90 in 10.0 mi North 5.8 mph - N/A   Clear